QPF
0.00 0.00 0.00 0.00 0.00 0.00 0.00 0.00 0.00 0.00 0.00 0.00 0.00 0.00 0.00 0.00 0.00 0.00 0.00 0.00 0.00 0.00 0.00 0.00 0.00 0.00 0.01 0.01 0.00 0.00 0.00 0.00 0.00 0.01 0.01 0.01 0.02 0.02 0.01 0.00 0.00 0.00 0.00 0.00
0.00 0.00 0.00 0.01 0.01 0.00 0.00 0.00 0.00 0.00 0.00 0.00 0.00 0.00 0.00 0.00 0.00 0.00 0.00 0.00 0.00 0.00 0.00 0.00 0.00 0.00 0.00 0.00 0.00 0.00 0.00 0.00 0.00 0.01 0.01 0.01 0.01 0.02 0.02 0.01 0.00 0.00 0.00 0.00
0.00 0.00 0.00 0.00 0.01 0.01 0.00 0.00 0.00 0.00 0.00 0.00 0.00 0.00 0.00 0.00 0.00 0.00 0.00 0.00 0.00 0.00 0.00 0.00 0.00 0.00 0.00 0.00 0.00 0.00 0.00 0.00 0.00 0.00 0.01 0.01 0.01 0.01 0.02 0.01 0.00 0.00 0.00 0.00
0.00 0.00 0.00 0.00 0.00 0.01 0.01 0.00 0.00 0.00 0.00 0.00 0.00 0.00 0.00 0.00 0.00 0.00 0.00 0.00 0.00 0.00 0.00 0.00 0.00 0.00 0.00 0.00 0.00 0.00 0.00 0.00 0.00 0.00 0.00 0.01 0.01 0.01 0.01 0.01 0.01 0.00 0.00 0.00
0.00 0.00 0.00 0.00 0.00 0.00 0.00 0.00 0.00 0.00 0.00 0.01 0.00 0.00 0.00 0.00 0.00 0.00 0.00 0.00 0.00 0.00 0.00 0.00 0.00 0.00 0.00 0.00 0.00 0.00 0.00 0.00 0.00 0.00 0.00 0.00 0.01 0.01 0.01 0.01 0.01 0.01 0.00 0.00
0.00 0.00 0.00 0.00 0.00 0.00 0.00 0.01 0.01 0.01 0.01 0.01 0.00 0.00 0.00 0.00 0.00 0.00 0.00 0.00 0.00 0.00 0.00 0.00 0.00 0.00 0.00 0.00 0.00 0.00 0.00 0.00 0.00 0.00 0.00 0.00 0.01 0.01 0.01 0.01 0.01 0.01 0.01 0.00
0.01 0.00 0.00 0.00 0.00 0.01 0.01 0.01 0.02 0.02 0.02 0.01 0.00 0.00 0.00 0.00 0.00 0.00 0.00 0.00 0.00 0.00 0.00 0.00 0.00 0.00 0.00 0.00 0.00 0.00 0.00 0.00 0.00 0.00 0.00 0.01 0.01 0.01 0.01 0.01 0.01 0.01 0.01 0.01
0.01 0.00 0.00 0.00 0.00 0.00 0.00 0.01 0.01 0.01 0.00 0.00 0.00 0.00 0.00 0.00 0.00 0.00 0.00 0.00 0.00 0.00 0.00 0.00 0.00 0.00 0.00 0.00 0.00 0.00 0.00 0.00 0.00 0.00 0.01 0.01 0.01 0.01 0.01 0.01 0.01 0.01 0.01 0.01
0.01 0.01 0.01 0.02 0.00 0.01 0.01 0.01 0.01 0.01 0.01 0.00 0.00 0.00 0.00 0.00 0.00 0.00 0.00 0.00 0.00 0.00 0.00 0.00 0.00 0.00 0.00 0.00 0.00 0.00 0.00 0.00 0.00 0.00 0.00 0.01 0.01 0.01 0.01 0.01 0.01 0.01 0.01 0.01
0.02 0.01 0.01 0.01 0.00 0.01 0.01 0.01 0.01 0.02 0.02 0.01 0.00 0.00 0.00 0.00 0.00 0.00 0.00 0.00 0.00 0.00 0.00 0.00 0.00 0.00 0.00 0.00 0.00 0.00 0.00 0.00 0.00 0.00 0.00 0.01 0.01 0.01 0.01 0.01 0.01 0.01 0.01 0.00
0.02 0.02 0.01 0.01 0.02 0.01 0.00 0.01 0.02 0.02 0.01 0.01 0.00 0.00 0.00 0.00 0.00 0.00 0.00 0.00 0.00 0.00 0.00 0.00 0.00 0.00 0.00 0.00 0.00 0.00 0.00 0.00 0.00 0.00 0.00 0.01 0.01 0.01 0.01 0.01 0.01 0.01 0.01 0.00
0.02 0.02 0.01 0.01 0.01 0.01 0.00 0.00 0.01 0.03 0.02 0.02 0.01 0.00 0.00 0.00 0.00 0.00 0.00 0.00 0.00 0.00 0.00 0.00 0.00 0.00 0.00 0.00 0.00 0.00 0.00 0.00 0.00 0.00 0.01 0.01 0.01 0.01 0.01 0.01 0.01 0.01 0.01 0.01
0.02 0.03 0.02 0.01 0.01 0.01 0.01 0.01 0.01 0.01 0.02 0.02 0.01 0.00 0.00 0.00 0.00 0.00 0.00 0.00 0.00 0.00 0.00 0.00 0.00 0.00 0.00 0.00 0.00 0.00 0.00 0.00 0.00 0.01 0.01 0.01 0.01 0.01 0.01 0.00 0.00 0.00 0.00 0.00
0.05 0.06 0.03 0.02 0.01 0.01 0.01 0.01 0.01 0.02 0.03 0.02 0.01 0.00 0.00 0.00 0.00 0.00 0.00 0.00 0.00 0.00 0.00 0.00 0.00 0.00 0.00 0.00 0.00 0.01 0.01 0.01 0.01 0.01 0.01 0.01 0.01 0.00 0.00 0.00 0.00 0.00 0.00 0.00
0.05 0.05 0.03 0.02 0.01 0.01 0.01 0.01 0.01 0.01 0.02 0.02 0.01 0.01 0.01 0.01 0.01 0.01 0.00 0.01 0.01 0.01 0.00 0.00 0.00 0.00 0.00 0.00 0.01 0.01 0.01 0.01 0.01 0.01 0.01 0.01 0.01 0.00 0.00 0.00 0.00 0.00 0.00 0.00
0.04 0.04 0.03 0.02 0.02 0.01 0.01 0.01 0.01 0.01 0.01 0.01 0.01 0.01 0.01 0.01 0.01 0.01 0.01 0.01 0.01 0.01 0.01 0.01 0.01 0.01 0.01 0.01 0.01 0.01 0.01 0.01 0.01 0.01 0.01 0.01 0.01 0.01 0.00 0.00 0.00 0.00 0.00 0.00
0.03 0.03 0.03 0.02 0.01 0.01 0.01 0.01 0.01 0.01 0.01 0.01 0.01 0.01 0.01 0.01 0.00 0.01 0.01 0.01 0.01 0.02 0.02 0.02 0.01 0.01 0.01 0.01 0.01 0.01 0.01 0.01 0.01 0.01 0.01 0.01 0.01 0.01 0.01 0.01 0.01 0.01 0.00 0.00
0.03 0.03 0.03 0.02 0.01 0.02 0.01 0.01 0.01 0.01 0.01 0.01 0.01 0.01 0.01 0.01 0.01 0.01 0.01 0.01 0.02 0.02 0.03 0.03 0.02 0.02 0.02 0.01 0.01 0.01 0.01 0.01 0.01 0.01 0.01 0.01 0.01 0.01 0.01 0.01 0.01 0.01 0.01 0.00
0.01 0.03 0.04 0.03 0.02 0.01 0.01 0.01 0.01 0.01 0.01 0.01 0.01 0.01 0.01 0.01 0.01 0.01 0.01 0.02 0.02 0.02 0.03 0.03 0.03 0.03 0.03 0.03 0.03 0.03 0.02 0.02 0.01 0.01 0.01 0.01 0.01 0.01 0.01 0.01 0.01 0.01 0.01 0.01
0.02 0.03 0.05 0.04 0.02 0.01 0.01 0.00 0.01 0.01 0.01 0.01 0.01 0.01 0.01 0.01 0.01 0.01 0.02 0.02 0.02 0.02 0.02 0.02 0.03 0.03 0.03 0.03 0.04 0.03 0.02 0.02 0.01 0.01 0.02 0.02 0.02 0.02 0.01 0.01 0.01 0.01 0.01 0.01
0.03 0.05 0.06 0.03 0.03 0.02 0.01 0.01 0.01 0.02 0.02 0.01 0.02 0.02 0.02 0.02 0.02 0.02 0.02 0.02 0.02 0.02 0.02 0.02 0.02 0.02 0.02 0.03 0.03 0.02 0.02 0.01 0.01 0.01 0.01 0.01 0.01 0.02 0.02 0.02 0.02 0.02 0.01 0.01
0.02 0.03 0.04 0.04 0.04 0.03 0.01 0.01 0.02 0.03 0.02 0.02 0.02 0.02 0.03 0.02 0.02 0.02 0.02 0.02 0.02 0.02 0.02 0.02 0.02 0.02 0.02 0.02 0.01 0.01 0.01 0.01 0.01 0.00 0.01 0.01 0.01 0.02 0.02 0.02 0.02 0.02 0.02 0.01
0.03 0.03 0.04 0.04 0.03 0.03 0.02 0.03 0.03 0.03 0.02 0.02 0.02 0.02 0.02 0.02 0.02 0.02 0.02 0.02 0.01 0.01 0.01 0.01 0.01 0.01 0.02 0.02 0.01 0.01 0.01 0.00 0.00 0.00 0.00 0.01 0.01 0.02 0.02 0.03 0.02 0.02 0.02 0.02
0.02 0.03 0.03 0.03 0.03 0.02 0.03 0.02 0.02 0.02 0.02 0.02 0.01 0.01 0.01 0.01 0.01 0.02 0.02 0.01 0.01 0.01 0.01 0.01 0.01 0.01 0.01 0.01 0.01 0.01 0.01 0.00 0.00 0.00 0.00 0.01 0.01 0.01 0.02 0.03 0.03 0.03 0.03 0.03
0.02 0.02 0.03 0.03 0.03 0.02 0.02 0.02 0.02 0.01 0.01 0.01 0.01 0.01 0.01 0.01 0.01 0.01 0.01 0.02 0.01 0.01 0.01 0.01 0.01 0.01 0.01 0.01 0.01 0.01 0.01 0.00 0.00 0.00 0.00 0.01 0.01 0.01 0.01 0.03 0.03 0.03 0.03 0.03
0.02 0.02 0.03 0.02 0.02 0.02 0.02 0.02 0.02 0.02 0.01 0.01 0.01 0.01 0.01 0.01 0.01 0.01 0.02 0.02 0.02 0.02 0.01 0.01 0.01 0.01 0.01 0.01 0.01 0.01 0.00 0.00 0.00 0.00 0.00 0.00 0.01 0.01 0.01 0.01 0.02 0.03 0.03 0.03
MSLP
1010.22 1010.34 1010.44 1010.54 1010.67 1010.84 1011.04 1011.25 1011.44 1011.56 1011.57 1011.45 1011.20 1010.84 1010.43 1010.04 1009.74 1009.60 1009.67 1009.96 1010.48 1011.19 1012.05 1012.99 1013.98 1014.96 1015.92 1016.84 1017.73 1018.59 1019.43 1020.26 1021.07 1021.85 1022.59 1023.26 1023.85 1024.35 1024.76 1025.07 1025.32 1025.51 1025.66 1025.79
1009.97 1009.98 1009.97 1010.00 1010.09 1010.26 1010.50 1010.77 1011.02 1011.19 1011.23 1011.10 1010.81 1010.38 1009.87 1009.36 1008.93 1008.68 1008.64 1008.86 1009.33 1010.03 1010.90 1011.89 1012.95 1014.02 1015.06 1016.08 1017.06 1018.01 1018.92 1019.82 1020.68 1021.51 1022.30 1023.02 1023.67 1024.24 1024.72 1025.12 1025.45 1025.71 1025.92 1026.10
1009.68 1009.60 1009.52 1009.49 1009.56 1009.73 1010.00 1010.30 1010.60 1010.80 1010.85 1010.72 1010.39 1009.89 1009.29 1008.67 1008.13 1007.76 1007.62 1007.75 1008.15 1008.81 1009.67 1010.69 1011.80 1012.94 1014.09 1015.21 1016.30 1017.34 1018.34 1019.31 1020.23 1021.11 1021.94 1022.70 1023.40 1024.03 1024.58 1025.06 1025.47 1025.82 1026.10 1026.34
1009.24 1009.12 1009.02 1008.99 1009.06 1009.25 1009.54 1009.88 1010.19 1010.41 1010.46 1010.31 1009.95 1009.40 1008.74 1008.04 1007.41 1006.94 1006.71 1006.75 1007.07 1007.67 1008.50 1009.52 1010.65 1011.85 1013.07 1014.29 1015.48 1016.63 1017.72 1018.76 1019.74 1020.66 1021.51 1022.31 1023.04 1023.71 1024.32 1024.87 1025.36 1025.80 1026.17 1026.49
1008.59 1008.51 1008.44 1008.45 1008.57 1008.80 1009.12 1009.48 1009.81 1010.03 1010.07 1009.90 1009.52 1008.94 1008.24 1007.51 1006.83 1006.30 1006.00 1005.97 1006.22 1006.75 1007.52 1008.50 1009.63 1010.85 1012.13 1013.42 1014.69 1015.93 1017.10 1018.20 1019.23 1020.18 1021.05 1021.85 1022.59 1023.29 1023.94 1024.55 1025.13 1025.66 1026.13 1026.53
1007.75 1007.74 1007.77 1007.87 1008.06 1008.36 1008.72 1009.10 1009.43 1009.64 1009.67 1009.48 1009.09 1008.52 1007.82 1007.10 1006.42 1005.89 1005.56 1005.48 1005.68 1006.14 1006.85 1007.77 1008.85 1010.06 1011.34 1012.67 1013.99 1015.28 1016.51 1017.66 1018.72 1019.69 1020.56 1021.36 1022.10 1022.80 1023.48 1024.15 1024.79 1025.41 1025.98 1026.48
1006.78 1006.89 1007.04 1007.25 1007.54 1007.91 1008.31 1008.71 1009.03 1009.21 1009.22 1009.03 1008.64 1008.10 1007.46 1006.80 1006.19 1005.70 1005.41 1005.33 1005.49 1005.89 1006.53 1007.37 1008.38 1009.54 1010.79 1012.10 1013.43 1014.74 1016.00 1017.18 1018.25 1019.22 1020.08 1020.86 1021.59 1022.30 1022.99 1023.69 1024.40 1025.10 1025.76 1026.37
1005.84 1006.05 1006.31 1006.64 1007.02 1007.44 1007.87 1008.26 1008.55 1008.70 1008.69 1008.49 1008.14 1007.66 1007.12 1006.57 1006.08 1005.71 1005.49 1005.46 1005.63 1006.01 1006.57 1007.33 1008.25 1009.31 1010.48 1011.74 1013.03 1014.33 1015.58 1016.76 1017.83 1018.79 1019.64 1020.41 1021.12 1021.82 1022.52 1023.25 1024.00 1024.77 1025.52 1026.22
1005.09 1005.35 1005.68 1006.07 1006.50 1006.94 1007.36 1007.72 1007.96 1008.07 1008.02 1007.84 1007.53 1007.15 1006.74 1006.35 1006.04 1005.83 1005.76 1005.82 1006.04 1006.41 1006.93 1007.59 1008.40 1009.35 1010.41 1011.58 1012.80 1014.05 1015.27 1016.42 1017.48 1018.43 1019.27 1020.02 1020.72 1021.40 1022.10 1022.85 1023.64 1024.46 1025.28 1026.07
1004.64 1004.87 1005.19 1005.57 1005.98 1006.39 1006.77 1007.06 1007.23 1007.28 1007.21 1007.04 1006.80 1006.53 1006.29 1006.10 1006.00 1006.01 1006.11 1006.32 1006.62 1007.01 1007.50 1008.09 1008.79 1009.60 1010.54 1011.58 1012.70 1013.87 1015.04 1016.16 1017.20 1018.13 1018.96 1019.70 1020.39 1021.06 1021.76 1022.51 1023.32 1024.18 1025.06 1025.91
1004.52 1004.63 1004.84 1005.13 1005.45 1005.78 1006.06 1006.26 1006.36 1006.36 1006.27 1006.13 1005.97 1005.84 1005.77 1005.81 1005.94 1006.18 1006.49 1006.86 1007.28 1007.72 1008.19 1008.72 1009.31 1010.00 1010.79 1011.70 1012.70 1013.77 1014.87 1015.95 1016.96 1017.88 1018.70 1019.45 1020.13 1020.80 1021.50 1022.24 1023.06 1023.93 1024.84 1025.74
1004.64 1004.54 1004.58 1004.71 1004.90 1005.11 1005.28 1005.39 1005.42 1005.38 1005.29 1005.19 1005.13 1005.14 1005.27 1005.52 1005.89 1006.35 1006.88 1007.42 1007.95 1008.45 1008.93 1009.40 1009.89 1010.45 1011.10 1011.86 1012.74 1013.70 1014.72 1015.74 1016.73 1017.64 1018.47 1019.21 1019.90 1020.57 1021.26 1022.00 1022.80 1023.67 1024.59 1025.50
1004.84 1004.51 1004.34 1004.29 1004.33 1004.41 1004.49 1004.53 1004.52 1004.47 1004.41 1004.38 1004.43 1004.59 1004.89 1005.34 1005.92 1006.59 1007.30 1007.99 1008.63 1009.18 1009.66 1010.08 1010.48 1010.91 1011.42 1012.03 1012.77 1013.62 1014.54 1015.51 1016.46 1017.37 1018.20 1018.96 1019.66 1020.34 1021.02 1021.74 1022.53 1023.38 1024.28 1025.20
1004.96 1004.42 1004.05 1003.85 1003.78 1003.78 1003.80 1003.83 1003.83 1003.82 1003.83 1003.89 1004.05 1004.34 1004.79 1005.41 1006.15 1006.98 1007.82 1008.62 1009.33 1009.92 1010.38 1010.74 1011.05 1011.35 1011.72 1012.18 1012.78 1013.50 1014.33 1015.23 1016.15 1017.04 1017.89 1018.66 1019.38 1020.06 1020.74 1021.45 1022.21 1023.04 1023.91 1024.81
1004.92 1004.23 1003.75 1003.47 1003.35 1003.34 1003.40 1003.47 1003.55 1003.63 1003.73 1003.90 1004.16 1004.57 1005.14 1005.86 1006.70 1007.61 1008.53 1009.38 1010.12 1010.70 1011.12 1011.41 1011.61 1011.78 1012.00 1012.31 1012.76 1013.36 1014.08 1014.91 1015.79 1016.67 1017.52 1018.32 1019.06 1019.75 1020.43 1021.13 1021.86 1022.65 1023.49 1024.37
1004.74 1004.02 1003.54 1003.29 1003.23 1003.30 1003.46 1003.66 1003.86 1004.07 1004.29 1004.56 1004.92 1005.40 1006.02 1006.78 1007.64 1008.56 1009.48 1010.32 1011.02 1011.55 1011.91 1012.10 1012.18 1012.23 1012.30 1012.46 1012.76 1013.22 1013.84 1014.58 1015.41 1016.27 1017.13 1017.94 1018.71 1019.43 1020.11 1020.80 1021.52 1022.27 1023.08 1023.92
1004.60 1003.98 1003.62 1003.51 1003.60 1003.85 1004.18 1004.54 1004.90 1005.25 1005.58 1005.94 1006.34 1006.84 1007.45 1008.18 1008.99 1009.84 1010.68 1011.44 1012.06 1012.51 1012.76 1012.85 1012.82 1012.73 1012.65 1012.67 1012.82 1013.15 1013.65 1014.31 1015.08 1015.92 1016.78 1017.61 1018.41 1019.15 1019.85 1020.54 1021.24 1021.97 1022.74 1023.55
1004.78 1004.38 1004.25 1004.37 1004.69 1005.15 1005.68 1006.22 1006.73 1007.19 1007.60 1007.99 1008.39 1008.84 1009.37 1009.98 1010.67 1011.39 1012.09 1012.72 1013.22 1013.55 1013.70 1013.68 1013.53 1013.32 1013.12 1013.00 1013.02 1013.22 1013.61 1014.18 1014.90 1015.70 1016.55 1017.40 1018.22 1019.00 1019.72 1020.42 1021.11 1021.82 1022.56 1023.33
1005.59 1005.49 1005.65 1006.04 1006.60 1007.26 1007.97 1008.65 1009.26 1009.77 1010.19 1010.54 1010.86 1011.20 1011.58 1012.02 1012.53 1013.07 1013.60 1014.08 1014.44 1014.66 1014.70 1014.58 1014.34 1014.04 1013.74 1013.51 1013.42 1013.50 1013.80 1014.28 1014.93 1015.70 1016.53 1017.39 1018.24 1019.04 1019.79 1020.50 1021.18 1021.87 1022.58 1023.32
1007.26 1007.49 1007.94 1008.56 1009.32 1010.13 1010.93 1011.66 1012.27 1012.75 1013.09 1013.33 1013.50 1013.66 1013.85 1014.09 1014.39 1014.73 1015.09 1015.41 1015.65 1015.76 1015.73 1015.55 1015.26 1014.90 1014.54 1014.24 1014.06 1014.06 1014.26 1014.66 1015.24 1015.97 1016.78 1017.63 1018.49 1019.30 1020.07 1020.80 1021.48 1022.15 1022.82 1023.52
1009.87 1010.38 1011.06 1011.84 1012.70 1013.54 1014.33 1015.00 1015.50 1015.84 1016.02 1016.08 1016.05 1016.00 1015.96 1015.99 1016.08 1016.24 1016.44 1016.63 1016.78 1016.83 1016.77 1016.58 1016.28 1015.92 1015.54 1015.20 1014.97 1014.91 1015.03 1015.36 1015.87 1016.53 1017.30 1018.13 1018.98 1019.80 1020.58 1021.30 1021.98 1022.62 1023.26 1023.90
1013.30 1014.01 1014.80 1015.64 1016.46 1017.22 1017.86 1018.35 1018.65 1018.77 1018.72 1018.54 1018.29 1018.01 1017.77 1017.59 1017.51 1017.52 1017.60 1017.70 1017.80 1017.85 1017.80 1017.64 1017.39 1017.06 1016.71 1016.38 1016.14 1016.03 1016.09 1016.34 1016.78 1017.37 1018.08 1018.86 1019.68 1020.48 1021.24 1021.96 1022.62 1023.23 1023.83 1024.41
1017.26 1018.06 1018.86 1019.61 1020.27 1020.82 1021.21 1021.43 1021.45 1021.30 1020.99 1020.57 1020.09 1019.62 1019.19 1018.86 1018.66 1018.56 1018.57 1018.65 1018.75 1018.82 1018.83 1018.75 1018.58 1018.33 1018.03 1017.74 1017.51 1017.38 1017.39 1017.57 1017.92 1018.42 1019.05 1019.76 1020.52 1021.27 1022.00 1022.68 1023.32 1023.90 1024.44 1024.97
1021.37 1022.14 1022.82 1023.37 1023.79 1024.04 1024.11 1024.01 1023.72 1023.29 1022.74 1022.11 1021.45 1020.83 1020.29 1019.87 1019.59 1019.46 1019.45 1019.53 1019.66 1019.79 1019.88 1019.90 1019.83 1019.67 1019.46 1019.23 1019.02 1018.88 1018.85 1018.96 1019.22 1019.62 1020.14 1020.75 1021.42 1022.11 1022.78 1023.42 1024.00 1024.54 1025.04 1025.50
1025.21 1025.86 1026.34 1026.63 1026.73 1026.65 1026.39 1025.98 1025.42 1024.75 1024.01 1023.23 1022.48 1021.78 1021.19 1020.75 1020.46 1020.32 1020.33 1020.44 1020.62 1020.82 1020.99 1021.10 1021.13 1021.06 1020.93 1020.76 1020.58 1020.43 1020.36 1020.40 1020.57 1020.86 1021.27 1021.77 1022.33 1022.93 1023.52 1024.09 1024.63 1025.11 1025.56 1025.97
1028.46 1028.92 1029.15 1029.15 1028.95 1028.56 1028.02 1027.35 1026.59 1025.78 1024.94 1024.11 1023.33 1022.65 1022.08 1021.67 1021.41 1021.30 1021.33 1021.48 1021.69 1021.93 1022.16 1022.34 1022.44 1022.45 1022.38 1022.26 1022.10 1021.95 1021.85 1021.82 1021.90 1022.08 1022.37 1022.75 1023.20 1023.70 1024.20 1024.70 1025.17 1025.61 1026.00 1026.35
Thickness
5575 5579 5582 5584 5583 5586 5586 5585 5587 5585 5575 5573 5579 5583 5585 5577 5570 5572 5572 5570 5566 5564 5560 5554 5549 5546 5542 5539 5536 5533 5531 5528 5525 5524 5523 5522 5520 5519 5518 5517 5516 5517 5517 5518
5568 5571 5574 5570 5568 5569 5571 5573 5576 5571 5560 5563 5570 5574 5579 5574 5570 5569 5568 5566 5563 5558 5553 5547 5542 5539 5536 5533 5529 5526 5523 5520 5518 5516 5515 5512 5510 5508 5507 5505 5505 5505 5506 5506
5567 5564 5559 5557 5557 5558 5562 5565 5567 5562 5552 5550 5553 5572 5575 5572 5565 5562 5560 5560 5558 5553 5548 5542 5537 5533 5529 5526 5523 5519 5516 5512 5509 5506 5503 5501 5499 5498 5497 5496 5495 5494 5494 5494
5550 5549 5547 5548 5550 5551 5555 5554 5550 5547 5548 5556 5549 5563 5579 5569 5561 5557 5556 5554 5551 5547 5542 5537 5532 5528 5524 5519 5514 5511 5506 5503 5499 5496 5494 5494 5493 5491 5489 5486 5484 5483 5482 5483
5541 5536 5538 5541 5544 5541 5544 5538 5537 5537 5539 5540 5540 5542 5571 5560 5558 5558 5554 5549 5545 5540 5536 5531 5526 5521 5516 5510 5505 5501 5497 5493 5490 5487 5485 5484 5483 5481 5478 5475 5473 5472 5471 5471
5528 5525 5528 5532 5530 5529 5525 5525 5522 5523 5527 5530 5542 5538 5563 5560 5557 5554 5548 5541 5536 5531 5527 5522 5517 5511 5507 5501 5496 5492 5488 5485 5481 5477 5475 5474 5473 5469 5467 5465 5463 5462 5460 5459
5519 5517 5515 5517 5518 5515 5517 5524 5525 5524 5524 5537 5529 5528 5550 5548 5541 5538 5534 5530 5525 5519 5516 5513 5507 5502 5497 5493 5488 5484 5480 5476 5471 5468 5465 5463 5461 5459 5457 5455 5453 5452 5451 5449
5514 5516 5510 5508 5513 5514 5513 5519 5523 5522 5531 5535 5514 5524 5542 5527 5520 5517 5514 5514 5511 5508 5505 5502 5498 5493 5488 5484 5479 5474 5471 5466 5462 5458 5455 5451 5449 5447 5446 5445 5443 5442 5441 5439
5509 5509 5496 5495 5497 5504 5504 5507 5510 5509 5506 5509 5525 5524 5523 5513 5509 5505 5502 5501 5499 5496 5493 5490 5486 5482 5477 5473 5470 5465 5461 5456 5451 5448 5444 5441 5439 5437 5436 5434 5432 5431 5429 5428
5493 5492 5489 5483 5486 5486 5493 5497 5493 5495 5498 5508 5521 5521 5525 5512 5505 5498 5493 5489 5486 5483 5480 5477 5473 5470 5466 5462 5458 5454 5450 5445 5441 5437 5434 5431 5429 5427 5425 5424 5422 5420 5419 5417
5478 5479 5477 5476 5481 5487 5479 5480 5487 5490 5490 5499 5508 5519 5508 5501 5493 5488 5483 5477 5473 5470 5467 5464 5461 5458 5454 5450 5446 5443 5439 5434 5430 5426 5423 5420 5418 5415 5414 5413 5411 5409 5408 5406
5465 5467 5471 5474 5467 5466 5474 5479 5477 5479 5478 5476 5489 5502 5482 5480 5475 5472 5468 5463 5459 5455 5452 5450 5448 5445 5441 5438 5435 5431 5428 5424 5420 5416 5412 5409 5406 5404 5403 5401 5400 5398 5396 5395
5453 5455 5461 5468 5458 5450 5454 5458 5459 5461 5463 5466 5473 5490 5467 5464 5460 5456 5453 5450 5446 5442 5439 5437 5435 5432 5429 5426 5422 5419 5416 5412 5408 5405 5402 5399 5396 5394 5392 5390 5388 5386 5385 5383
5445 5447 5456 5467 5469 5455 5448 5448 5447 5447 5452 5460 5468 5478 5468 5457 5451 5446 5441 5436 5433 5430 5427 5425 5422 5419 5416 5413 5410 5407 5403 5400 5396 5394 5391 5388 5386 5383 5381 5378 5376 5375 5373 5371
5431 5436 5438 5443 5444 5441 5442 5442 5440 5438 5448 5450 5462 5459 5460 5447 5440 5435 5429 5424 5420 5417 5414 5412 5409 5406 5404 5401 5398 5394 5391 5388 5385 5382 5380 5377 5374 5372 5369 5367 5365 5363 5361 5359
5417 5421 5420 5423 5429 5427 5427 5433 5432 5432 5434 5435 5437 5439 5434 5427 5423 5419 5415 5411 5407 5405 5401 5398 5395 5393 5390 5388 5385 5382 5379 5376 5373 5371 5368 5365 5363 5360 5358 5356 5353 5351 5350 5348
5405 5404 5409 5422 5416 5413 5423 5428 5424 5423 5423 5422 5425 5427 5414 5411 5408 5405 5402 5397 5395 5391 5387 5384 5382 5380 5377 5375 5373 5370 5367 5364 5362 5359 5356 5354 5352 5349 5347 5344 5342 5341 5339 5338
5392 5393 5396 5399 5400 5404 5426 5407 5409 5409 5403 5398 5399 5398 5395 5393 5388 5385 5383 5383 5381 5377 5373 5371 5369 5366 5364 5361 5359 5357 5354 5352 5350 5348 5345 5343 5340 5338 5336 5333 5331 5330 5328 5327
5384 5383 5386 5389 5398 5412 5406 5391 5386 5388 5390 5381 5380 5381 5378 5372 5376 5375 5367 5364 5363 5361 5359 5357 5355 5353 5351 5348 5346 5343 5341 5340 5338 5336 5334 5331 5329 5327 5325 5322 5320 5319 5317 5316
5370 5371 5376 5379 5386 5399 5396 5374 5369 5375 5384 5370 5365 5365 5362 5362 5376 5372 5352 5348 5348 5346 5344 5342 5341 5339 5338 5335 5333 5331 5329 5328 5326 5324 5322 5320 5318 5316 5314 5312 5309 5307 5306 5305
5362 5361 5364 5371 5377 5385 5362 5355 5361 5372 5372 5352 5349 5348 5347 5348 5348 5340 5334 5334 5333 5331 5330 5328 5327 5325 5324 5322 5320 5319 5317 5316 5314 5312 5310 5308 5306 5304 5303 5300 5298 5296 5295 5293
5360 5359 5356 5359 5362 5367 5343 5344 5347 5346 5337 5335 5334 5332 5329 5326 5323 5322 5321 5320 5319 5317 5316 5314 5313 5311 5309 5308 5307 5306 5305 5303 5301 5299 5298 5297 5295 5293 5291 5290 5288 5286 5284 5282
5342 5344 5349 5347 5348 5335 5328 5326 5323 5322 5323 5322 5320 5317 5314 5312 5311 5309 5308 5306 5305 5303 5302 5300 5299 5297 5295 5294 5294 5293 5292 5290 5289 5288 5287 5286 5284 5282 5281 5279 5278 5276 5273 5272
5327 5320 5327 5328 5326 5319 5315 5312 5310 5309 5308 5306 5305 5303 5301 5299 5297 5296 5294 5293 5291 5290 5288 5287 5286 5284 5283 5282 5280 5279 5278 5278 5277 5277 5275 5274 5273 5272 5270 5268 5266 5264 5262 5261
5313 5310 5313 5315 5310 5306 5305 5300 5297 5294 5293 5292 5291 5289 5287 5285 5284 5282 5281 5279 5278 5277 5276 5275 5274 5272 5270 5269 5268 5267 5266 5266 5266 5265 5264 5263 5262 5261 5259 5257 5255 5253 5251 5249
5296 5295 5301 5308 5298 5294 5292 5286 5283 5281 5279 5277 5276 5275 5273 5271 5269 5268 5267 5266 5265 5264 5264 5263 5262 5260 5258 5257 5256 5255 5254 5254 5254 5253 5253 5252 5251 5249 5248 5246 5243 5240 5238 5237